Temp
7 7 7 7 7 7 6 6 6 6 6 6 5 5 5 5 5 5 6 5 6 6 6 6 6 6 6 6 6 6 6 6 6 6 6 7 7 6 6 7 7 7 7
7 7 7 6 6 6 6 6 6 6 6 6 5 5 5 5 5 5 5 5 5 5 6 6 6 6 6 6 6 6 6 6 6 6 6 6 6 6 7 7 7 7 7
6 6 6 6 6 6 6 6 6 6 5 5 5 5 5 5 5 4 4 4 5 5 5 6 6 5 6 6 5 6 6 6 6 6 6 6 6 6 6 6 6 7 7
7 7 6 6 5 5 5 5 5 5 5 5 5 5 5 4 4 4 4 3 4 5 5 5 6 5 5 5 5 5 6 5 6 5 5 6 6 6 6 6 6 6 6
7 6 6 5 5 5 5 4 5 5 5 5 4 4 4 4 4 3 4 3 4 5 5 5 5 5 5 5 5 5 5 5 5 6 5 5 5 5 6 6 6 6 6
6 6 5 5 5 5 4 3 4 4 4 4 3 4 5 4 4 4 4 4 4 5 5 4 4 5 5 5 5 5 5 6 6 6 6 6 6 6 5 5 6 6 6
6 6 5 5 5 3 3 3 3 4 3 3 3 3 4 4 4 3 3 4 4 4 5 4 5 5 5 5 5 5 5 6 6 6 6 6 6 6 6 6 6 6 6
6 5 5 5 5 3 4 4 4 2 3 4 3 4 4 5 4 3 2 3 3 4 5 5 5 5 5 5 5 5 5 5 5 5 5 6 6 6 6 6 6 6 6
6 5 5 5 4 3 3 4 3 3 4 3 3 3 3 3 4 3 2 3 4 5 5 5 5 5 5 5 5 5 5 5 6 6 5 6 6 5 6 6 6 6 6
6 5 4 4 4 4 3 3 3 3 4 3 2 3 3 3 2 2 4 4 4 4 4 4 4 5 5 5 5 5 5 5 6 6 6 6 6 6 6 6 6 6 6
6 5 5 4 4 3 3 2 3 3 3 3 3 2 1 2 2 2 3 4 4 4 4 4 5 5 5 5 5 5 5 5 6 5 6 6 6 6 6 6 6 6 6
6 5 4 4 4 3 3 2 2 1 2 2 1 1 2 2 3 3 3 3 4 4 4 4 5 5 5 5 5 5 5 5 5 6 5 6 6 6 6 6 6 6 6
6 5 5 4 3 3 3 2 3 3 3 2 2 1 1 2 3 3 3 3 4 4 4 4 5 5 5 5 5 5 5 5 5 5 5 5 5 5 5 5 5 6 6
6 6 5 4 3 3 2 2 3 2 2 2 2 2 3 3 3 3 4 3 3 4 4 4 5 5 5 5 5 5 5 5 5 5 5 5 5 5 5 5 5 6 6
6 6 6 5 4 3 3 3 3 2 2 2 2 2 2 2 2 2 3 3 4 4 4 4 5 5 5 5 5 5 5 5 5 5 5 5 5 5 5 5 5 5 6
6 6 5 5 4 4 3 2 2 2 2 2 2 2 2 2 2 3 3 3 4 4 4 4 4 4 4 4 5 4 4 5 4 5 5 5 5 5 5 5 5 5 6
6 6 5 5 5 4 4 3 2 2 2 2 2 2 2 2 2 2 2 3 3 3 4 4 4 4 4 4 4 4 4 4 5 4 4 4 4 4 5 5 5 5 5
6 6 6 5 5 4 3 3 2 2 2 2 1 2 2 1 1 1 2 2 2 3 3 3 3 3 4 4 4 4 4 4 4 4 4 4 4 4 4 4 5 5 5
5 6 5 5 4 4 4 3 3 2 2 2 2 2 1 1 1 1 1 1 1 2 2 3 3 3 3 3 3 4 4 4 3 3 4 4 4 4 4 4 4 4 4
5 5 6 5 4 4 3 3 3 3 3 3 2 1 1 1 1 -0 -0 1 0 1 1 2 2 2 3 3 3 3 3 3 3 3 3 3 3 3 3 3 4 4 4
5 5 5 5 4 4 4 3 4 3 3 2 2 2 0 1 2 1 0 -0 -1 0 0 1 1 1 2 2 2 2 2 3 3 3 3 3 2 3 3 3 3 4 4
4 4 4 4 4 3 3 3 2 2 2 2 1 2 1 0 1 1 0 -1 -1 -1 0 1 1 1 2 2 2 2 2 2 2 2 2 2 2 2 3 2 2 2 3
4 4 4 4 4 3 3 2 2 2 2 2 1 1 1 -0 -1 -0 0 1 -2 -1 0 0 -0 0 0 0 1 1 2 1 1 1 1 1 1 1 2 1 1 2 2
4 4 3 3 3 3 3 3 2 2 2 1 0 -0 -0 -1 -2 -2 -1 -1 -1 -2 -1 -0 -0 -0 -0 0 1 1 1 1 1 1 1 1 1 1 1 1 1 1 1
3 3 3 3 3 3 2 2 2 2 1 1 0 -1 -1 -1 -1 -2 -1 -2 -3 -2 -1 -2 -2 -1 -1 -1 -1 -1 -1 -0 -0 0 1 1 0 0 -0 0 0 0 0
2 2 2 2 2 2 2 1 1 1 1 1 -0 -1 -1 -2 -2 -2 -2 -2 -2 -3 -4 -3 -2 -3 -3 -2 -2 -1 -1 -1 -1 -1 -1 -0 -0 -0 -1 -1 -1 -1 -1
Height
3104 3103 3103 3102 3103 3103 3104 3104 3105 3106 3107 3109 3110 3112 3114 3114 3118 3119 3122 3122 3124 3126 3128 3129 3130 3132 3133 3135 3136 3137 3139 3140 3141 3143 3144 3145 3146 3148 3149 3151 3152 3154 3155
3101 3101 3101 3100 3100 3101 3101 3102 3102 3103 3105 3106 3108 3109 3111 3113 3115 3118 3120 3122 3123 3126 3128 3129 3131 3132 3134 3135 3137 3138 3139 3140 3141 3143 3145 3146 3147 3149 3150 3151 3153 3155 3156
3098 3097 3097 3097 3097 3097 3098 3099 3099 3101 3102 3103 3104 3105 3107 3109 3113 3117 3119 3120 3122 3125 3127 3129 3131 3132 3134 3135 3137 3138 3139 3141 3142 3144 3145 3146 3148 3149 3151 3153 3154 3155 3157
3094 3092 3093 3093 3093 3093 3093 3096 3097 3098 3099 3101 3101 3102 3103 3105 3109 3110 3113 3117 3120 3123 3125 3128 3129 3132 3134 3135 3136 3138 3140 3141 3143 3145 3146 3147 3149 3150 3152 3153 3154 3156 3157
3090 3089 3089 3089 3089 3089 3089 3090 3092 3093 3096 3097 3097 3099 3099 3101 3105 3107 3110 3115 3119 3120 3124 3126 3129 3130 3133 3135 3136 3138 3139 3140 3142 3144 3145 3147 3148 3150 3151 3153 3154 3156 3158
3086 3086 3087 3087 3086 3085 3084 3083 3087 3087 3091 3092 3081 3096 3092 3096 3099 3102 3107 3108 3116 3120 3123 3125 3128 3130 3132 3134 3135 3137 3138 3139 3141 3143 3145 3146 3147 3149 3151 3152 3154 3155 3157
3083 3083 3084 3084 3083 3081 3080 3083 3085 3074 3086 3089 3083 3087 3096 3096 3096 3102 3106 3111 3114 3119 3121 3124 3127 3129 3131 3133 3135 3136 3138 3139 3140 3142 3144 3145 3147 3148 3150 3152 3153 3155 3156
3081 3080 3082 3082 3080 3079 3078 3081 3081 3079 3082 3084 3078 3087 3092 3096 3098 3103 3109 3111 3114 3118 3121 3123 3126 3128 3131 3133 3134 3135 3137 3138 3140 3141 3142 3144 3146 3147 3149 3151 3152 3154 3155
3079 3078 3079 3080 3079 3078 3077 3077 3080 3084 3086 3084 3085 3089 3094 3097 3098 3103 3108 3114 3116 3118 3120 3123 3124 3127 3129 3131 3133 3134 3135 3137 3138 3141 3141 3142 3144 3145 3147 3149 3151 3152 3154
3077 3076 3077 3077 3078 3077 3075 3075 3078 3082 3085 3087 3085 3090 3093 3096 3099 3102 3109 3113 3115 3117 3120 3122 3124 3126 3128 3129 3131 3133 3134 3135 3137 3139 3140 3141 3143 3144 3146 3147 3149 3150 3151
3075 3074 3075 3076 3077 3077 3076 3076 3078 3080 3082 3084 3087 3089 3093 3096 3101 3103 3108 3111 3115 3117 3119 3121 3123 3125 3127 3129 3130 3132 3133 3134 3137 3138 3138 3140 3141 3143 3144 3146 3146 3148 3149
3072 3072 3072 3073 3075 3076 3076 3077 3078 3079 3080 3083 3086 3089 3092 3094 3099 3103 3106 3110 3113 3116 3118 3120 3122 3124 3125 3127 3129 3130 3131 3132 3134 3136 3136 3137 3139 3141 3143 3143 3144 3146 3147
3068 3070 3070 3071 3073 3075 3077 3078 3078 3081 3082 3085 3088 3090 3094 3097 3099 3103 3107 3110 3111 3114 3116 3118 3120 3121 3123 3125 3126 3128 3129 3130 3133 3133 3134 3136 3137 3139 3140 3140 3141 3143 3144
3063 3065 3067 3068 3070 3072 3075 3078 3079 3078 3081 3083 3086 3090 3093 3096 3099 3102 3106 3106 3107 3112 3113 3115 3117 3119 3121 3122 3124 3125 3126 3128 3131 3131 3132 3133 3134 3136 3137 3138 3139 3139 3141
3060 3061 3064 3065 3068 3069 3072 3075 3077 3079 3080 3083 3086 3088 3091 3094 3096 3100 3103 3104 3107 3109 3110 3113 3115 3117 3118 3120 3121 3122 3124 3126 3127 3128 3129 3130 3131 3132 3133 3135 3136 3137 3138
3057 3057 3059 3061 3063 3066 3068 3071 3074 3076 3079 3082 3084 3086 3090 3092 3095 3097 3099 3102 3104 3106 3108 3110 3111 3113 3115 3116 3118 3119 3120 3122 3124 3125 3126 3128 3128 3129 3130 3131 3132 3133 3134
3050 3053 3053 3056 3059 3061 3064 3067 3070 3073 3076 3079 3081 3083 3085 3088 3092 3094 3097 3099 3101 3103 3104 3106 3108 3109 3111 3113 3115 3116 3116 3118 3120 3122 3123 3124 3125 3126 3127 3128 3128 3129 3130
3042 3046 3050 3051 3054 3056 3059 3062 3065 3068 3071 3073 3077 3079 3081 3083 3086 3090 3092 3094 3097 3099 3100 3102 3104 3105 3108 3109 3110 3112 3113 3114 3115 3117 3119 3120 3120 3121 3122 3123 3125 3125 3126
3036 3039 3042 3045 3047 3050 3054 3057 3060 3063 3066 3069 3072 3075 3078 3081 3083 3085 3088 3090 3092 3094 3095 3097 3099 3102 3103 3106 3106 3107 3109 3110 3111 3112 3113 3114 3115 3117 3117 3118 3119 3120 3121
3030 3031 3034 3037 3040 3044 3047 3050 3053 3056 3059 3063 3067 3070 3073 3075 3078 3082 3084 3085 3087 3088 3090 3092 3094 3096 3098 3100 3101 3102 3103 3104 3105 3106 3107 3109 3110 3111 3112 3113 3114 3115 3115
3022 3024 3026 3029 3033 3036 3039 3042 3046 3049 3054 3059 3062 3064 3067 3069 3072 3075 3078 3080 3081 3083 3085 3087 3089 3091 3093 3093 3095 3097 3096 3097 3098 3100 3101 3103 3104 3104 3106 3107 3108 3109 3110
3014 3016 3017 3022 3024 3027 3031 3035 3038 3042 3047 3051 3054 3057 3059 3063 3066 3069 3070 3072 3074 3076 3079 3081 3083 3085 3085 3086 3087 3089 3089 3092 3093 3094 3094 3096 3098 3097 3099 3100 3101 3101 3101
3005 3008 3010 3013 3018 3019 3022 3026 3029 3033 3037 3041 3046 3050 3053 3056 3059 3061 3063 3064 3066 3068 3070 3073 3076 3077 3079 3080 3082 3084 3084 3086 3088 3088 3089 3090 3091 3091 3092 3092 3092 3093 3093
2997 3000 3002 3004 3009 3013 3016 3018 3021 3026 3031 3036 3040 3044 3046 3048 3052 3055 3055 3057 3058 3062 3063 3065 3066 3068 3070 3072 3073 3075 3076 3077 3080 3081 3082 3081 3082 3082 3085 3085 3085 3086 3086
2991 2994 2996 2997 3000 3004 3007 3010 3012 3018 3023 3027 3030 3034 3038 3041 3044 3046 3048 3049 3052 3053 3054 3057 3058 3059 3062 3065 3067 3067 3069 3069 3071 3072 3073 3075 3075 3076 3078 3077 3076 3077 3077
2986 2987 2988 2990 2992 2995 2998 3001 3004 3009 3012 3018 3021 3025 3028 3032 3035 3038 3040 3043 3044 3045 3048 3049 3050 3053 3053 3057 3059 3060 3062 3063 3064 3065 3065 3065 3067 3068 3068 3068 3067 3067 3066
Wind_Speed
15 12 11 10 12 13 11 13 14 12 12 13 17 18 14 13 16 17 14 11 11 11 10 10 10 11 11 12 12 12 11 12 12 13 13 13 13 14 13 13 13 13 14
14 15 14 15 15 14 16 14 16 15 16 15 18 19 15 13 10 18 15 13 13 13 12 11 9 10 10 11 12 12 12 12 12 12 13 12 13 13 13 13 13 13 12
23 21 20 21 15 15 16 17 18 18 17 16 20 19 16 15 17 25 17 15 15 14 14 12 11 12 11 11 12 12 11 10 10 11 12 12 12 12 12 12 12 12 11
24 26 21 18 14 17 18 18 18 20 19 19 22 21 18 19 19 28 21 20 16 15 14 14 13 11 12 12 12 11 10 10 10 10 10 10 10 11 10 10 11 11 10
24 21 17 16 18 20 23 22 22 22 19 20 24 25 21 23 26 28 26 23 14 14 14 13 12 13 14 13 13 12 11 12 12 12 11 10 10 10 10 10 10 9 9
20 17 13 14 18 19 15 15 18 24 22 21 38 32 28 29 30 33 33 25 11 13 14 14 13 13 13 13 13 14 14 13 12 11 10 12 12 11 10 10 9 9 8
16 15 14 14 16 7 7 10 13 20 26 25 23 36 29 29 28 22 28 23 13 11 14 15 14 13 13 13 12 12 12 11 11 10 11 12 11 11 11 11 10 10 9
13 15 13 12 10 3 4 7 13 2 34 30 20 25 30 30 24 23 22 21 13 11 13 13 14 14 14 14 13 13 11 10 11 10 9 9 10 11 11 11 11 11 11
13 13 12 11 9 4 6 5 11 13 19 36 25 23 20 29 32 25 13 15 15 14 13 14 14 13 13 12 12 12 12 11 11 9 9 10 10 10 10 10 8 8 8
14 13 12 12 11 10 8 6 12 22 19 15 29 29 29 32 27 16 16 15 15 15 15 14 13 13 13 13 12 12 11 12 11 9 10 10 11 11 10 10 9 9 9
13 15 12 12 9 8 8 4 7 17 22 19 26 22 21 20 18 17 13 13 14 14 14 14 14 13 13 12 13 13 13 14 12 13 13 13 14 13 12 12 13 12 12
16 15 13 12 8 8 12 9 6 11 10 19 24 21 25 24 17 15 13 13 15 15 14 13 13 12 12 13 13 14 14 14 13 14 13 14 13 12 12 13 15 15 15
19 15 15 14 11 9 14 10 15 14 14 10 7 19 14 12 12 19 23 22 18 16 14 14 13 13 13 13 14 14 14 14 14 14 14 14 14 14 15 16 16 16 15
20 18 17 16 15 12 14 17 12 16 11 10 9 14 14 15 16 17 19 16 14 15 13 13 13 14 14 14 15 15 16 17 15 14 15 16 16 15 14 16 17 16 16
21 20 18 19 18 18 18 18 15 17 11 12 12 12 12 13 13 15 16 15 15 16 15 15 15 15 16 16 16 17 18 18 16 16 16 16 16 16 16 16 17 17 17
21 21 20 20 21 21 23 23 20 21 15 15 18 16 16 15 15 15 15 15 16 17 17 17 17 17 17 17 18 18 19 20 18 17 17 17 18 18 17 17 18 18 18
26 24 24 23 23 24 24 26 26 28 23 20 21 21 19 19 18 17 17 17 18 17 19 18 18 18 18 18 19 19 20 21 20 18 19 18 18 18 19 19 19 20 20
26 26 27 26 26 26 28 28 31 31 31 27 25 25 24 22 21 21 20 20 20 20 19 20 20 19 20 20 20 21 22 22 22 21 20 19 19 19 20 20 20 21 22
26 27 28 29 30 29 30 30 30 32 33 32 30 28 26 26 24 23 23 24 22 23 21 21 21 22 21 22 22 23 24 24 24 23 22 22 22 22 22 22 22 23 24
31 28 30 31 32 33 33 34 34 34 34 34 31 31 29 29 28 28 28 26 25 25 24 23 23 23 23 24 24 25 26 26 26 25 24 25 25 25 24 24 24 25 25
34 33 30 33 34 35 35 36 36 36 33 31 32 34 34 34 31 29 28 31 31 28 26 25 24 25 26 26 26 27 26 27 27 27 28 28 28 27 27 27 27 28 28
34 34 35 33 35 35 36 35 36 35 34 34 35 36 35 35 33 32 33 35 32 33 30 27 27 27 28 28 27 27 28 28 28 29 29 29 29 30 30 30 30 30 30
34 36 37 36 35 36 36 37 38 39 39 38 37 36 36 35 34 34 33 32 31 34 31 31 30 29 28 29 29 30 30 31 29 31 31 32 31 32 31 31 31 32 33
26 29 37 40 40 39 38 38 39 38 37 36 35 35 35 36 36 36 37 34 32 32 33 33 33 33 31 31 31 31 31 31 32 32 31 33 34 34 33 34 35 35 35
23 25 28 33 37 41 43 43 44 41 40 39 38 37 37 38 37 35 38 37 35 39 34 34 34 34 33 32 32 32 33 33 34 34 36 35 36 36 35 37 38 39 38
19 22 24 26 27 31 35 39 43 42 43 41 40 40 40 38 37 38 38 38 34 34 34 37 32 33 35 36 35 35 35 35 35 36 37 38 37 38 36 38 39 39 39
Wind_Direction
293 310 293 294 311 311 285 251 253 250 249 239 228 224 234 246 269 204 202 182 177 166 168 145 147 153 142 144 140 135 131 127 124 120 117 124 124 127 124 117 117 133 134
293 306 283 286 293 297 290 260 246 246 245 244 230 241 243 233 244 217 199 185 177 173 170 173 166 156 158 150 149 143 140 138 133 128 125 124 124 121 121 118 118 122 127
293 289 282 284 289 288 285 270 247 247 245 243 238 249 242 239 233 225 198 194 185 175 176 176 177 173 160 160 164 163 160 152 147 141 136 135 133 129 128 129 126 130 134
287 287 284 283 281 284 273 272 261 251 248 239 245 245 249 252 236 198 181 156 159 175 177 176 178 169 173 170 166 169 169 161 153 141 138 136 135 131 135 136 136 136 135
293 285 279 281 286 285 274 258 244 245 248 247 244 240 232 232 202 179 178 162 172 172 180 179 168 182 182 184 186 184 185 186 173 167 164 157 154 153 151 148 148 151 148
289 282 275 278 284 281 265 245 240 240 231 233 253 209 168 191 192 193 190 175 168 179 187 174 180 182 180 181 188 195 199 198 198 186 179 185 180 178 173 167 163 163 170
285 276 281 288 293 282 268 221 231 233 221 223 213 200 188 177 170 170 186 176 160 185 184 182 187 186 185 182 183 190 197 200 197 191 190 198 197 199 201 198 194 193 193
286 271 279 291 302 270 316 265 253 79 190 180 162 181 194 196 191 175 182 180 162 204 184 182 185 187 190 193 193 197 202 207 204 190 186 189 197 203 215 219 217 217 217
288 272 273 281 298 298 278 292 221 204 193 211 209 210 207 201 206 187 171 186 192 187 184 184 180 185 186 192 194 200 199 206 215 194 200 203 210 212 216 223 225 223 218
289 273 267 275 288 312 308 282 216 217 219 225 214 199 195 218 198 159 183 181 184 179 184 180 182 188 191 196 202 208 211 215 217 215 214 221 222 223 227 228 234 237 237
286 273 259 263 281 305 221 197 213 214 226 228 209 197 174 173 171 166 173 183 191 192 192 194 196 201 205 214 219 223 226 228 226 230 226 226 233 234 235 238 238 240 241
280 266 256 251 254 273 218 186 93 132 167 201 186 164 178 172 169 176 179 201 203 205 203 209 211 216 219 224 230 232 233 232 231 235 237 237 241 243 244 244 242 239 240
270 260 253 244 239 237 217 230 151 137 125 123 131 198 152 152 171 191 192 199 210 215 212 218 222 227 231 233 234 238 239 237 236 238 244 250 249 247 245 246 248 248 245
262 259 246 237 233 228 218 189 190 189 190 181 177 174 177 182 190 198 209 212 207 222 225 229 233 233 236 237 237 238 239 240 238 245 251 254 255 249 249 249 248 248 246
255 260 252 242 230 223 216 223 216 211 219 218 215 211 214 208 203 213 217 218 221 224 229 233 236 239 240 237 235 235 242 245 243 251 254 257 257 254 251 253 255 257 257
247 251 249 242 237 229 218 223 232 224 234 239 237 231 223 226 227 227 228 231 232 234 232 234 237 240 243 241 240 239 242 248 249 253 259 259 258 255 254 253 254 255 257
250 243 245 243 236 235 233 227 227 228 237 245 242 239 237 235 236 237 240 243 244 243 242 239 242 243 245 245 247 246 247 252 254 256 261 259 258 259 256 256 257 258 259
252 245 242 242 235 232 233 232 233 234 240 249 248 244 241 238 240 244 245 244 246 247 249 249 248 246 250 248 245 246 247 250 253 255 255 261 263 261 260 260 261 262 263
256 248 239 237 238 233 232 232 234 237 240 244 244 244 245 246 246 251 250 247 246 247 246 247 247 249 250 252 251 250 249 250 251 254 258 259 260 261 263 265 265 265 266
251 250 243 238 235 234 231 231 232 234 237 239 243 244 247 249 253 249 249 259 251 251 249 248 248 249 250 250 251 251 250 251 252 254 256 259 259 259 261 264 267 269 270
246 244 242 240 237 236 237 235 236 238 239 239 239 243 243 247 249 253 250 254 256 257 256 255 254 251 250 250 250 251 252 254 255 256 257 259 261 263 263 265 266 267 268
246 242 240 235 235 235 235 237 238 238 240 238 236 238 240 245 248 248 250 248 255 256 254 253 254 256 258 259 260 261 260 259 259 260 261 262 263 265 265 266 267 268 269
246 240 239 237 232 234 237 236 237 236 237 237 239 241 242 243 246 251 253 254 254 257 256 250 249 250 253 255 256 258 259 259 260 260 261 262 262 263 265 265 267 267 268
246 242 238 240 237 236 237 240 242 243 244 245 245 244 247 246 244 247 255 255 255 255 254 252 246 249 250 253 255 258 260 263 263 262 264 266 267 269 269 270 271 271 272
245 247 245 243 243 242 242 243 245 244 241 239 239 240 242 240 240 245 248 260 251 249 260 258 256 255 251 253 256 257 259 261 262 264 263 262 265 266 269 270 270 272 274
242 239 239 241 244 245 245 243 243 243 243 241 241 241 240 241 243 242 246 252 252 254 256 257 263 259 259 253 253 255 258 259 261 263 265 266 266 266 267 270 273 276 277